Ancona, IL

2:07 AM CST on February 21, 2017 (GMT -0600)
Eplin/Connell Farm | | Change Station
Active Advisory: Small Craft Advisory

Elev 626 ft 41.17 °N, 88.85 °W | Updated 2 minutes ago

Overcast
Overcast
56.0 °F
Feels Like 56.0 °F
N
3.0
Wind Variable Wind from SW
Gusts 11.0 mph

Today
High -- | Low -- °F
--% Chance of Precip.
Yesterday
High -- | Low -- °F
Precip. -- in
Pressure 29.93 in
Visibility 10.0 miles
Clouds Scattered Clouds 4000 ft
Mostly Cloudy 6000 ft
Overcast 11000 ft
Dew Point 52 °F
Humidity 87%
Rainfall 0.00 in
Snow Depth Not available.
6:41 AM 5:37 PM
Waning Crescent, 27% visible
METAR KPNT 210735Z AUTO 17007KT 10SM SCT040 BKN060 OVC110 14/12 A2993 RMK AO2 T01370115
Pressure 29.93 in
Visibility 10.0 miles
Clouds Scattered Clouds 4000 ft
Mostly Cloudy 6000 ft
Overcast 11000 ft
Dew Point 52 °F
Humidity 87%
Rainfall 0.00 in
Snow Depth Not available.
6:41 AM 5:37 PM
Waning Crescent, 27% visible
METAR KPNT 210735Z AUTO 17007KT 10SM SCT040 BKN060 OVC110 14/12 A2993 RMK AO2 T01370115

Get Your Daily Forecast Email!

Thanks for signing up!

Be on the lookout for a verification email in your inbox.

You'll start receiving the daily forecast at 8 AM.

×

10-Day Weather Forecast

Almanac

Astronomy

Feb. 21, 2017 Rise Set
Actual Time
Civil Twilight
Nautical Twilight
Astronomical Twilight
Moon
Length of Visible Light
Length of Day
Tomorrow will be .
, % of the Moon is Illuminated

Today's Extremes

State Highs State Lows

Community

WunderPhotos

Upload Photos

1,962,540 photos uploaded!

WunderBlog® & News

Nearby

Air Quality

  Air Quality AQ Index Pollutant
Not available.

Snow Depth

Station Depth Elevation

Earthquake Activity

City Distance Mag. Time & Date
Minimum magnitude displayed is 2.5.

Coastal Water Temperatures

Place Temperature

Stations

Nearby Weather Stations

Station Location Temp. Windchill Dew Point Humidity Wind Precip. Elev Updated Type
                   

Watches & Warnings

Small Craft Advisory
Issued: 9:15 PM CST Feb. 20, 2017 – National Weather Service

... Small Craft Advisory remains in effect until 3 am CST
Tuesday...

* winds... to 25 kt.

* Significant waves... to 5 ft for IL... to 3 ft for Indiana.

* Occasional waves... to 7 ft for IL.

Precautionary/preparedness actions...

A Small Craft Advisory means that wind speeds of 21 to 33 knots
are expected to produce hazardous wave conditions to small craft.
Inexperienced mariners... especially those operating smaller
vessels should avoid navigating in these conditions.




Rodriguez